| time (UTC) | temp F | wind direction | speed MPH | gust MPH | rain 1hr in | rain 24hr in | rain mn in | humidity % | barometer mb |
| 20260510004512 | 78 | 278 | 3.0 | 8.0 | 0.00 | 0.00 | 0.00 | 51 | 1012.7 |
| 20260510004012 | 78 | 253 | 2.0 | 8.0 | 0.00 | 0.00 | 0.00 | 51 | 1012.6 |
| 20260510003511 | 78 | 285 | 3.0 | 10.0 | 0.00 | 0.00 | 0.00 | 51 | 1012.6 |
| 20260510003011 | 78 | 277 | 4.0 | 10.0 | 0.00 | 0.00 | 0.00 | 50 | 1012.7 |
| 20260510002511 | 78 | 282 | 3.0 | 11.0 | 0.00 | 0.00 | 0.00 | 52 | 1012.7 |
| 20260510002010 | 78 | 292 | 5.0 | 11.0 | 0.00 | 0.00 | 0.00 | 49 | 1012.7 |
| 20260510001510 | 78 | 272 | 4.0 | 8.0 | 0.00 | 0.00 | 0.00 | 49 | 1012.8 |
| 20260510001010 | 79 | 268 | 3.0 | 8.0 | 0.00 | 0.00 | 0.00 | 49 | 1012.8 |
| 20260510000511 | 79 | 257 | 2.0 | 8.0 | 0.00 | 0.00 | 0.00 | 50 | 1012.7 |
| 20260510000008 | 79 | 226 | 3.0 | 8.0 | 0.00 | 0.00 | 0.00 | 47 | 1012.8 |
| 20260509235507 | 79 | 260 | 3.0 | 11.0 | 0.00 | 0.00 | 0.00 | 49 | 1012.8 |
| 20260509235007 | 79 | 273 | 2.0 | 5.0 | 0.00 | 0.00 | 0.00 | 49 | 1012.8 |
| 20260509234507 | 79 | 280 | 2.0 | 7.0 | 0.00 | 0.00 | 0.00 | 49 | 1012.8 |
| 20260509234006 | 79 | 292 | 2.0 | 8.0 | 0.00 | 0.00 | 0.00 | 49 | 1012.9 |
| 20260509233506 | 79 | 296 | 2.0 | 8.0 | 0.00 | 0.00 | 0.00 | 48 | 1012.9 |
| 20260509233005 | 79 | 287 | 4.0 | 10.0 | 0.00 | 0.00 | 0.00 | 47 | 1013.0 |
| 20260509232504 | 79 | 293 | 2.0 | 11.0 | 0.00 | 0.00 | 0.00 | 49 | 1013.0 |
| 20260509232004 | 79 | 262 | 2.0 | 10.0 | 0.00 | 0.00 | 0.00 | 46 | 1013.0 |
| 20260509231503 | 79 | 255 | 3.0 | 10.0 | 0.00 | 0.00 | 0.00 | 50 | 1013.1 |
| 20260509231001 | 79 | 237 | 4.0 | 8.0 | 0.00 | 0.00 | 0.00 | 48 | 1013.1 |
| 20260509230501 | 79 | 266 | 2.0 | 9.0 | 0.00 | 0.00 | 0.00 | 49 | 1013.2 |
| 20260509230002 | 79 | 283 | 4.0 | 11.0 | 0.00 | 0.00 | 0.00 | 50 | 1013.2 |
| 20260509225600 | 79 | 294 | 3.0 | 11.0 | 0.00 | 0.00 | 0.00 | 49 | 1013.3 |
| 20260509225104 | 79 | 302 | 5.0 | 10.0 | 0.00 | 0.00 | 0.00 | 51 | 1013.3 |
| 20260509224621 | 79 | 273 | 3.0 | 10.0 | 0.00 | 0.00 | 0.00 | 49 | 1013.3 |
| 20260509224101 | 79 | 276 | 4.0 | 10.0 | 0.00 | 0.00 | 0.00 | 49 | 1013.4 |
| 20260509223559 | 79 | 261 | 2.0 | 9.0 | 0.00 | 0.00 | 0.00 | 49 | 1013.4 |
| 20260509223058 | 79 | 266 | 3.0 | 14.0 | 0.00 | 0.00 | 0.00 | 49 | 1013.4 |
| 20260509222556 | 80 | 268 | 4.0 | 11.0 | 0.00 | 0.00 | 0.00 | 48 | 1013.5 |
| 20260509222056 | 80 | 269 | 2.0 | 10.0 | 0.00 | 0.00 | 0.00 | 50 | 1013.6 |
| 20260509221556 | 80 | 283 | 4.0 | 9.0 | 0.00 | 0.00 | 0.00 | 47 | 1013.6 |
| 20260509221055 | 80 | 267 | 4.0 | 9.0 | 0.00 | 0.00 | 0.00 | 47 | 1013.6 |
| 20260509220553 | 79 | 278 | 2.0 | 10.0 | 0.00 | 0.00 | 0.00 | 49 | 1013.6 |
| 20260509220053 | 79 | 220 | 2.0 | 10.0 | 0.00 | 0.00 | 0.00 | 48 | 1013.6 |
| 20260509215553 | 79 | 298 | 4.0 | 12.0 | 0.00 | 0.00 | 0.00 | 49 | 1013.6 |
| 20260509215055 | 79 | 246 | 4.0 | 12.0 | 0.00 | 0.00 | 0.00 | 46 | 1013.6 |
| 20260509214551 | 79 | 276 | 3.0 | 8.0 | 0.00 | 0.00 | 0.00 | 48 | 1013.7 |
| 20260509214051 | 79 | 290 | 2.0 | 8.0 | 0.00 | 0.00 | 0.00 | 48 | 1013.8 |
| 20260509213551 | 79 | 281 | 4.0 | 10.0 | 0.00 | 0.00 | 0.00 | 49 | 1013.8 |
| 20260509213102 | 79 | 284 | 4.0 | 10.0 | 0.00 | 0.00 | 0.00 | 48 | 1013.9 |
| 20260509212549 | 79 | 297 | 2.0 | 8.0 | 0.00 | 0.00 | 0.00 | 50 | 1014.0 |
| 20260509212049 | 79 | 252 | 2.0 | 10.0 | 0.00 | 0.00 | 0.00 | 46 | 1014.0 |
| 20260509211611 | 79 | 289 | 3.0 | 10.0 | 0.00 | 0.00 | 0.00 | 45 | 1014.1 |
| 20260509211048 | 79 | 296 | 3.0 | 8.0 | 0.00 | 0.00 | 0.00 | 46 | 1014.1 |
| 20260509210548 | 79 | 272 | 3.0 | 11.0 | 0.00 | 0.00 | 0.00 | 46 | 1014.1 |
| 20260509210056 | 79 | 286 | 3.0 | 9.0 | 0.00 | 0.00 | 0.00 | 46 | 1014.2 |
| 20260509205547 | 79 | 229 | 2.0 | 12.0 | 0.00 | 0.00 | 0.00 | 45 | 1014.2 |
| 20260509205047 | 78 | 317 | 4.0 | 12.0 | 0.00 | 0.00 | 0.00 | 44 | 1014.2 |
| 20260509204559 | 79 | 236 | 3.0 | 9.0 | 0.00 | 0.00 | 0.00 | 46 | 1014.2 |
| 20260509204048 | 79 | 259 | 3.0 | 9.0 | 0.00 | 0.00 | 0.00 | 47 | 1014.2 |
| 20260509203547 | 79 | 250 | 3.0 | 7.0 | 0.00 | 0.00 | 0.00 | 44 | 1014.2 |
| 20260509203056 | 79 | 300 | 3.0 | 10.0 | 0.00 | 0.00 | 0.00 | 47 | 1014.3 |
| 20260509202548 | 79 | 279 | 3.0 | 9.0 | 0.00 | 0.00 | 0.00 | 42 | 1014.3 |
| 20260509202047 | 78 | 278 | 3.0 | 6.0 | 0.00 | 0.00 | 0.00 | 42 | 1014.3 |
| 20260509201546 | 79 | 221 | 2.0 | 6.0 | 0.00 | 0.00 | 0.00 | 39 | 1014.2 |
| 20260509201045 | 78 | 279 | 1.0 | 10.0 | 0.00 | 0.00 | 0.00 | 44 | 1014.4 |
| 20260509200545 | 78 | 292 | 4.0 | 10.0 | 0.00 | 0.00 | 0.00 | 41 | 1014.4 |
| 20260509200045 | 78 | 232 | 3.0 | 9.0 | 0.00 | 0.00 | 0.00 | 44 | 1014.3 |
| 20260509195544 | 77 | 272 | 2.0 | 9.0 | 0.00 | 0.00 | 0.00 | 45 | 1014.4 |
| 20260509195044 | 76 | 304 | 4.0 | 9.0 | 0.00 | 0.00 | 0.00 | 44 | 1014.4 |
| 20260509194545 | 76 | 288 | 3.0 | 9.0 | 0.00 | 0.00 | 0.00 | 45 | 1014.4 |
| 20260509194043 | 76 | 229 | 3.0 | 10.0 | 0.00 | 0.00 | 0.00 | 43 | 1014.5 |
| 20260509193543 | 76 | 277 | 2.0 | 8.0 | 0.00 | 0.00 | 0.00 | 46 | 1014.4 |
| 20260509193043 | 77 | 297 | 4.0 | 10.0 | 0.00 | 0.00 | 0.00 | 45 | 1014.4 |
| 20260509192542 | 77 | 275 | 5.0 | 10.0 | 0.00 | 0.00 | 0.00 | 46 | 1014.5 |
| 20260509192041 | 77 | 288 | 4.0 | 10.0 | 0.00 | 0.00 | 0.00 | 44 | 1014.5 |
| 20260509191540 | 77 | 320 | 4.0 | 11.0 | 0.00 | 0.00 | 0.00 | 46 | 1014.4 |
| 20260509191039 | 77 | 296 | 4.0 | 11.0 | 0.00 | 0.00 | 0.00 | 48 | 1014.5 |
| 20260509190539 | 77 | 269 | 2.0 | 9.0 | 0.00 | 0.00 | 0.00 | 48 | 1014.5 |
| 20260509190046 | 76 | 269 | 2.0 | 9.0 | 0.00 | 0.00 | 0.00 | 49 | 1014.6 |
| 20260509185538 | 76 | 292 | 3.0 | 9.0 | 0.00 | 0.00 | 0.00 | 50 | 1014.5 |
| 20260509185036 | 76 | 264 | 3.0 | 7.0 | 0.00 | 0.00 | 0.00 | 48 | 1014.5 |
| 20260509184534 | 77 | 242 | 3.0 | 8.0 | 0.00 | 0.00 | 0.00 | 50 | 1014.6 |
| 20260509184034 | 77 | 250 | 3.0 | 9.0 | 0.00 | 0.00 | 0.00 | 46 | 1014.6 |
| 20260509183533 | 77 | 278 | 3.0 | 9.0 | 0.00 | 0.00 | 0.00 | 46 | 1014.5 |
| 20260509183037 | 77 | 290 | 4.0 | 8.0 | 0.00 | 0.00 | 0.00 | 46 | 1014.5 |
| 20260509182530 | 77 | 259 | 2.0 | 9.0 | 0.00 | 0.00 | 0.00 | 47 | 1014.5 |
| 20260509182031 | 78 | 280 | 2.0 | 9.0 | 0.00 | 0.00 | 0.00 | 46 | 1014.6 |
| 20260509181528 | 78 | 289 | 4.0 | 10.0 | 0.00 | 0.00 | 0.00 | 46 | 1014.6 |
| 20260509181026 | 78 | 292 | 2.0 | 8.0 | 0.00 | 0.00 | 0.00 | 46 | 1014.6 |
| 20260509180527 | 78 | 284 | 2.0 | 8.0 | 0.00 | 0.00 | 0.00 | 46 | 1014.5 |
| 20260509180024 | 79 | 312 | 2.0 | 8.0 | 0.00 | 0.00 | 0.00 | 44 | 1014.6 |
| 20260509175524 | 79 | 288 | 1.0 | 6.0 | 0.00 | 0.00 | 0.00 | 43 | 1014.6 |
| 20260509175022 | 79 | 275 | 1.0 | 4.0 | 0.00 | 0.00 | 0.00 | 41 | 1014.6 |
| 20260509174521 | 79 | 313 | 2.0 | 5.0 | 0.00 | 0.00 | 0.00 | 45 | 1014.6 |
| 20260509174020 | 78 | 333 | 3.0 | 5.0 | 0.00 | 0.00 | 0.00 | 43 | 1014.6 |
| 20260509173518 | 78 | 355 | 2.0 | 4.0 | 0.00 | 0.00 | 0.00 | 45 | 1014.6 |
| 20260509173016 | 78 | 346 | 1.0 | 3.0 | 0.00 | 0.00 | 0.00 | 43 | 1014.6 |
| 20260509172515 | 78 | 37 | 1.0 | 3.0 | 0.00 | 0.00 | 0.00 | 46 | 1014.5 |
| 20260509172014 | 77 | 38 | 2.0 | 4.0 | 0.00 | 0.00 | 0.00 | 47 | 1014.5 |
| 20260509171513 | 77 | 43 | 1.0 | 4.0 | 0.00 | 0.00 | 0.00 | 47 | 1014.6 |
| 20260509171011 | 77 | 49 | 1.0 | 4.0 | 0.00 | 0.00 | 0.00 | 48 | 1014.6 |
| 20260509170510 | 77 | 51 | 2.0 | 4.0 | 0.00 | 0.00 | 0.00 | 50 | 1014.6 |
| 20260509170009 | 76 | 55 | 1.0 | 3.0 | 0.00 | 0.00 | 0.00 | 48 | 1014.6 |
| 20260509165511 | 76 | 55 | 1.0 | 4.0 | 0.00 | 0.00 | 0.00 | 48 | 1014.7 |
| 20260509165010 | 75 | 75 | 1.0 | 4.0 | 0.00 | 0.00 | 0.00 | 51 | 1014.7 |
| 20260509164505 | 75 | 78 | 0.0 | 3.0 | 0.00 | 0.00 | 0.00 | 53 | 1014.8 |
| 20260509164007 | 74 | 80 | 0.0 | 3.0 | 0.00 | 0.00 | 0.00 | 47 | 1014.8 |
| 20260509163503 | 74 | 82 | 0.0 | 3.0 | 0.00 | 0.00 | 0.00 | 47 | 1014.7 |
| 20260509163001 | 74 | 134 | 1.0 | 3.0 | 0.00 | 0.00 | 0.00 | 52 | 1014.7 |
| 20260509162600 | 73 | 141 | 0.0 | 2.0 | 0.00 | 0.00 | 0.00 | 55 | 1014.7 |
| 20260509162101 | 73 | 141 | 0.0 | 1.0 | 0.00 | 0.00 | 0.00 | 57 | 1014.7 |
| 20260509161557 | 72 | 142 | 0.0 | 2.0 | 0.00 | 0.00 | 0.00 | 58 | 1014.8 |
| 20260509161055 | 71 | 141 | 0.0 | 2.0 | 0.00 | 0.00 | 0.00 | 58 | 1014.9 |
| 20260509160554 | 70 | 141 | 0.0 | 1.0 | 0.00 | 0.00 | 0.00 | 58 | 1014.9 |
| 20260509160057 | 69 | 141 | 0.0 | 2.0 | 0.00 | 0.00 | 0.00 | 60 | 1014.9 |
| 20260509155550 | 68 | 144 | 0.0 | 2.0 | 0.00 | 0.00 | 0.00 | 55 | 1014.9 |
| 20260509155052 | 68 | 144 | 0.0 | 0.0 | 0.00 | 0.00 | 0.00 | 56 | 1014.9 |
| 20260509154548 | 68 | 144 | 0.0 | 0.0 | 0.00 | 0.00 | 0.00 | 57 | 1014.8 |
| 20260509154049 | 68 | 115 | 0.0 | 0.0 | 0.00 | 0.00 | 0.00 | 57 | 1014.8 |
| 20260509153545 | 67 | 109 | 0.0 | 1.0 | 0.00 | 0.00 | 0.00 | 56 | 1014.8 |
| 20260509153047 | 67 | 88 | 0.0 | 2.0 | 0.00 | 0.00 | 0.00 | 55 | 1014.8 |
| 20260509152543 | 68 | 88 | 0.0 | 2.0 | 0.00 | 0.00 | 0.00 | 58 | 1014.8 |
| 20260509152041 | 68 | 85 | 0.0 | 2.0 | 0.00 | 0.00 | 0.00 | 58 | 1014.7 |
| 20260509151541 | 68 | 85 | 1.0 | 2.0 | 0.00 | 0.00 | 0.00 | 55 | 1014.6 |
| 20260509151038 | 67 | 91 | 0.0 | 2.0 | 0.00 | 0.00 | 0.00 | 58 | 1014.6 |
| 20260509150538 | 67 | 93 | 0.0 | 2.0 | 0.00 | 0.00 | 0.00 | 57 | 1014.6 |
| 20260509150037 | 66 | 94 | 0.0 | 2.0 | 0.00 | 0.00 | 0.00 | 57 | 1014.6 |
| 20260509145534 | 65 | 123 | 0.0 | 2.0 | 0.00 | 0.00 | 0.00 | 60 | 1014.6 |
| 20260509145033 | 65 | 123 | 0.0 | 1.0 | 0.00 | 0.00 | 0.00 | 62 | 1014.6 |
| 20260509144530 | 64 | 123 | 0.0 | 1.0 | 0.00 | 0.00 | 0.00 | 60 | 1014.6 |
| 20260509144029 | 64 | 123 | 0.0 | 1.0 | 0.00 | 0.00 | 0.00 | 58 | 1014.6 |
| 20260509143528 | 64 | 123 | 0.0 | 1.0 | 0.00 | 0.00 | 0.00 | 60 | 1014.5 |
| 20260509143029 | 64 | 123 | 0.0 | 1.0 | 0.00 | 0.00 | 0.00 | 59 | 1014.5 |
| 20260509142526 | 63 | 124 | 0.0 | 2.0 | 0.00 | 0.00 | 0.00 | 59 | 1014.5 |
| 20260509142024 | 63 | 124 | 0.0 | 6.0 | 0.00 | 0.00 | 0.00 | 57 | 1014.5 |
| 20260509141529 | 63 | 114 | 0.0 | 6.0 | 0.00 | 0.00 | 0.00 | 57 | 1014.4 |
| 20260509141020 | 62 | 88 | 1.0 | 4.0 | 0.00 | 0.00 | 0.00 | 59 | 1014.3 |
| 20260509140520 | 62 | 128 | 1.0 | 5.0 | 0.00 | 0.00 | 0.00 | 59 | 1014.3 |
| 20260509140019 | 62 | 78 | 2.0 | 7.0 | 0.00 | 0.00 | 0.00 | 57 | 1014.2 |
| 20260509135516 | 62 | 38 | 1.0 | 7.0 | 0.00 | 0.00 | 0.00 | 58 | 1014.2 |
| 20260509135015 | 61 | 48 | 2.0 | 8.0 | 0.00 | 0.00 | 0.00 | 59 | 1014.2 |
| 20260509134513 | 61 | 76 | 2.0 | 8.0 | 0.00 | 0.00 | 0.00 | 60 | 1014.1 |
| 20260509134013 | 60 | 130 | 1.0 | 6.0 | 0.00 | 0.00 | 0.00 | 59 | 1014.2 |
| 20260509133510 | 60 | 86 | 2.0 | 6.0 | 0.00 | 0.00 | 0.00 | 60 | 1014.2 |
| 20260509133009 | 60 | 107 | 1.0 | 6.0 | 0.00 | 0.00 | 0.00 | 59 | 1014.2 |
| 20260509132508 | 60 | 107 | 2.0 | 6.0 | 0.00 | 0.00 | 0.00 | 60 | 1014.2 |
| 20260509132006 | 60 | 103 | 2.0 | 6.0 | 0.00 | 0.00 | 0.00 | 60 | 1014.2 |
| 20260509131505 | 60 | 100 | 2.0 | 8.0 | 0.00 | 0.00 | 0.00 | 60 | 1014.2 |
| 20260509131008 | 59 | 71 | 4.0 | 8.0 | 0.00 | 0.00 | 0.00 | 61 | 1014.1 |
| 20260509130505 | 59 | 84 | 3.0 | 6.0 | 0.00 | 0.00 | 0.00 | 61 | 1014.2 |
| 20260509130007 | 60 | 91 | 2.0 | 7.0 | 0.00 | 0.00 | 0.00 | 61 | 1014.1 |
| 20260509125503 | 60 | 98 | 2.0 | 7.0 | 0.00 | 0.00 | 0.00 | 61 | 1014.1 |
| 20260509125002 | 60 | 92 | 3.0 | 7.0 | 0.00 | 0.00 | 0.00 | 61 | 1014.1 |
| 20260509124502 | 60 | 93 | 3.0 | 6.0 | 0.00 | 0.00 | 0.00 | 61 | 1014.2 |
| 20260509124003 | 60 | 94 | 3.0 | 6.0 | 0.00 | 0.00 | 0.00 | 62 | 1014.1 |
| 20260509123502 | 60 | 84 | 3.0 | 7.0 | 0.00 | 0.00 | 0.00 | 62 | 1014.1 |
| 20260509123101 | 60 | 99 | 3.0 | 7.0 | 0.00 | 0.00 | 0.00 | 62 | 1014.1 |
| 20260509122600 | 60 | 88 | 3.0 | 6.0 | 0.00 | 0.00 | 0.00 | 62 | 1014.1 |
| 20260509122059 | 60 | 92 | 2.0 | 5.0 | 0.00 | 0.00 | 0.00 | 63 | 1014.1 |
| 20260509121600 | 60 | 89 | 2.0 | 4.0 | 0.00 | 0.00 | 0.00 | 63 | 1014.1 |
| 20260509121100 | 60 | 96 | 2.0 | 4.0 | 0.00 | 0.00 | 0.00 | 63 | 1014.1 |
| 20260509120559 | 60 | 96 | 1.0 | 4.0 | 0.00 | 0.00 | 0.00 | 63 | 1014.1 |
| 20260509120059 | 60 | 108 | 1.0 | 4.0 | 0.00 | 0.00 | 0.00 | 63 | 1014.1 |
| 20260509115558 | 60 | 108 | 1.0 | 4.0 | 0.00 | 0.00 | 0.00 | 63 | 1014.2 |
| 20260509115058 | 60 | 111 | 1.0 | 3.0 | 0.00 | 0.00 | 0.00 | 63 | 1014.2 |
| 20260509114601 | 60 | 105 | 0.0 | 4.0 | 0.00 | 0.00 | 0.00 | 64 | 1014.2 |
| 20260509114057 | 59 | 96 | 1.0 | 4.0 | 0.00 | 0.00 | 0.00 | 64 | 1014.2 |
| 20260509113556 | 59 | 96 | 2.0 | 4.0 | 0.00 | 0.00 | 0.00 | 64 | 1014.1 |
| 20260509113058 | 59 | 86 | 0.0 | 4.0 | 0.00 | 0.00 | 0.00 | 64 | 1014.2 |
| 20260509112556 | 59 | 84 | 1.0 | 5.0 | 0.00 | 0.00 | 0.00 | 64 | 1014.2 |
| 20260509112056 | 59 | 86 | 0.0 | 5.0 | 0.00 | 0.00 | 0.00 | 65 | 1014.2 |
| 20260509111557 | 59 | 97 | 1.0 | 5.0 | 0.00 | 0.00 | 0.00 | 65 | 1014.2 |
| 20260509111056 | 59 | 98 | 1.0 | 6.0 | 0.00 | 0.00 | 0.00 | 66 | 1014.1 |
| 20260509110557 | 59 | 86 | 3.0 | 5.0 | 0.00 | 0.00 | 0.00 | 65 | 1014.1 |
| 20260509110058 | 59 | 80 | 2.0 | 5.0 | 0.00 | 0.00 | 0.00 | 66 | 1014.3 |
| 20260509105553 | 60 | 71 | 2.0 | 5.0 | 0.00 | 0.00 | 0.00 | 65 | 1014.2 |
| 20260509105053 | 60 | 82 | 2.0 | 8.0 | 0.00 | 0.00 | 0.00 | 65 | 1014.2 |
| 20260509104555 | 60 | 79 | 3.0 | 8.0 | 0.00 | 0.00 | 0.00 | 65 | 1014.2 |
| 20260509104053 | 60 | 66 | 1.0 | 6.0 | 0.00 | 0.00 | 0.00 | 66 | 1014.2 |
| 20260509103552 | 60 | 82 | 2.0 | 6.0 | 0.00 | 0.00 | 0.00 | 65 | 1014.3 |
| 20260509103052 | 60 | 79 | 2.0 | 5.0 | 0.00 | 0.00 | 0.00 | 65 | 1014.2 |
| 20260509102552 | 60 | 85 | 2.0 | 5.0 | 0.00 | 0.00 | 0.00 | 66 | 1014.3 |
| 20260509102051 | 60 | 80 | 2.0 | 6.0 | 0.00 | 0.00 | 0.00 | 66 | 1014.3 |
| 20260509101552 | 60 | 89 | 0.0 | 3.0 | 0.00 | 0.00 | 0.00 | 66 | 1014.3 |
| 20260509101049 | 60 | 87 | 0.0 | 3.0 | 0.00 | 0.00 | 0.00 | 66 | 1014.4 |
| 20260509100549 | 60 | 85 | 1.0 | 6.0 | 0.00 | 0.00 | 0.00 | 66 | 1014.5 |
| 20260509095550 | 60 | 81 | 4.0 | 7.0 | 0.00 | 0.00 | 0.00 | 65 | 1014.3 |
| 20260509095049 | 60 | 97 | 0.0 | 3.0 | 0.00 | 0.00 | 0.00 | 66 | 1014.4 |
| 20260509094548 | 60 | 98 | 0.0 | 6.0 | 0.00 | 0.00 | 0.00 | 66 | 1014.4 |
| 20260509094048 | 60 | 88 | 2.0 | 6.0 | 0.00 | 0.00 | 0.00 | 66 | 1014.4 |
| 20260509093548 | 60 | 69 | 2.0 | 5.0 | 0.00 | 0.00 | 0.00 | 66 | 1014.5 |
| 20260509093048 | 60 | 71 | 3.0 | 9.0 | 0.00 | 0.00 | 0.00 | 66 | 1014.5 |
| 20260509092546 | 60 | 86 | 4.0 | 9.0 | 0.00 | 0.00 | 0.00 | 66 | 1014.5 |
| 20260509092046 | 60 | 79 | 3.0 | 7.0 | 0.00 | 0.00 | 0.00 | 67 | 1014.5 |
| 20260509091549 | 60 | 84 | 4.0 | 7.0 | 0.00 | 0.00 | 0.00 | 66 | 1014.5 |
| 20260509091046 | 60 | 76 | 3.0 | 6.0 | 0.00 | 0.00 | 0.00 | 67 | 1014.6 |
| 20260509090548 | 60 | 79 | 3.0 | 8.0 | 0.00 | 0.00 | 0.00 | 67 | 1014.6 |
| 20260509090045 | 60 | 76 | 3.0 | 8.0 | 0.00 | 0.00 | 0.00 | 67 | 1014.6 |
| 20260509085544 | 60 | 111 | 3.0 | 7.0 | 0.00 | 0.00 | 0.00 | 67 | 1014.6 |
| 20260509085044 | 60 | 103 | 2.0 | 7.0 | 0.00 | 0.00 | 0.00 | 67 | 1014.6 |
| 20260509084548 | 61 | 85 | 3.0 | 7.0 | 0.00 | 0.00 | 0.00 | 67 | 1014.6 |
| 20260509084043 | 61 | 92 | 3.0 | 7.0 | 0.00 | 0.00 | 0.00 | 66 | 1014.7 |
| 20260509083541 | 61 | 100 | 3.0 | 7.0 | 0.00 | 0.00 | 0.00 | 66 | 1014.7 |
| 20260509083041 | 61 | 90 | 3.0 | 6.0 | 0.00 | 0.00 | 0.00 | 65 | 1014.7 |
| 20260509082541 | 61 | 94 | 3.0 | 7.0 | 0.00 | 0.00 | 0.00 | 65 | 1014.7 |
| 20260509082041 | 62 | 115 | 3.0 | 7.0 | 0.00 | 0.00 | 0.00 | 65 | 1014.8 |
| 20260509081540 | 62 | 101 | 3.0 | 7.0 | 0.00 | 0.00 | 0.00 | 65 | 1014.9 |
| 20260509081038 | 62 | 105 | 3.0 | 7.0 | 0.00 | 0.00 | 0.00 | 65 | 1014.9 |
| 20260509080538 | 62 | 97 | 2.0 | 5.0 | 0.00 | 0.00 | 0.00 | 65 | 1014.9 |
| 20260509080054 | 62 | 94 | 1.0 | 7.0 | 0.00 | 0.00 | 0.00 | 65 | 1015.0 |
| 20260509075540 | 62 | 78 | 2.0 | 9.0 | 0.00 | 0.00 | 0.00 | 65 | 1015.0 |
| 20260509075036 | 62 | 64 | 5.0 | 10.0 | 0.00 | 0.00 | 0.00 | 66 | 1015.0 |
| 20260509074535 | 62 | 76 | 5.0 | 10.0 | 0.00 | 0.00 | 0.00 | 66 | 1015.0 |
| 20260509074034 | 61 | 83 | 5.0 | 8.0 | 0.00 | 0.00 | 0.00 | 66 | 1015.0 |
| 20260509073534 | 62 | 92 | 2.0 | 7.0 | 0.00 | 0.00 | 0.00 | 66 | 1015.0 |
| 20260509073101 | 62 | 105 | 4.0 | 7.0 | 0.00 | 0.00 | 0.00 | 66 | 1015.0 |
| 20260509072531 | 62 | 86 | 3.0 | 9.0 | 0.00 | 0.00 | 0.00 | 67 | 1015.0 |
| 20260509072030 | 61 | 88 | 5.0 | 11.0 | 0.00 | 0.00 | 0.00 | 67 | 1015.0 |
| 20260509071529 | 61 | 65 | 4.0 | 9.0 | 0.00 | 0.00 | 0.00 | 68 | 1015.0 |
| 20260509071028 | 61 | 70 | 3.0 | 6.0 | 0.00 | 0.00 | 0.00 | 68 | 1015.0 |
| 20260509070527 | 61 | 75 | 2.0 | 6.0 | 0.00 | 0.00 | 0.00 | 68 | 1015.0 |
| 20260509070026 | 61 | 74 | 4.0 | 6.0 | 0.00 | 0.00 | 0.00 | 68 | 1015.0 |
| 20260509065530 | 62 | 91 | 3.0 | 6.0 | 0.00 | 0.00 | 0.00 | 67 | 1015.1 |
| 20260509065026 | 62 | 83 | 2.0 | 6.0 | 0.00 | 0.00 | 0.00 | 67 | 1015.1 |
| 20260509064526 | 62 | 82 | 2.0 | 6.0 | 0.00 | 0.00 | 0.00 | 66 | 1015.2 |
| 20260509064026 | 62 | 82 | 1.0 | 4.0 | 0.00 | 0.00 | 0.00 | 66 | 1015.2 |
| 20260509063528 | 62 | 96 | 1.0 | 3.0 | 0.00 | 0.00 | 0.00 | 66 | 1015.2 |
| 20260509063030 | 62 | 96 | 1.0 | 4.0 | 0.00 | 0.00 | 0.00 | 66 | 1015.2 |
| 20260509062525 | 63 | 102 | 2.0 | 6.0 | 0.00 | 0.00 | 0.00 | 65 | 1015.2 |
| 20260509062026 | 63 | 98 | 2.0 | 6.0 | 0.00 | 0.00 | 0.00 | 65 | 1015.2 |
| 20260509061525 | 63 | 93 | 2.0 | 6.0 | 0.00 | 0.00 | 0.00 | 64 | 1015.2 |
| 20260509061024 | 63 | 92 | 2.0 | 7.0 | 0.00 | 0.00 | 0.00 | 63 | 1015.2 |
| 20260509060524 | 63 | 101 | 2.0 | 4.0 | 0.00 | 0.00 | 0.00 | 63 | 1015.2 |
| 20260509060026 | 63 | 109 | 2.0 | 4.0 | 0.00 | 0.00 | 0.00 | 61 | 1015.2 |
| 20260509055524 | 64 | 119 | 1.0 | 4.0 | 0.00 | 0.00 | 0.00 | 61 | 1015.2 |
| 20260509055027 | 64 | 109 | 2.0 | 4.0 | 0.00 | 0.00 | 0.00 | 60 | 1015.2 |
| 20260509054531 | 64 | 135 | 1.0 | 3.0 | 0.00 | 0.00 | 0.00 | 59 | 1015.2 |
| 20260509054023 | 64 | 137 | 0.0 | 3.0 | 0.00 | 0.00 | 0.00 | 58 | 1015.2 |
| 20260509053523 | 64 | 137 | 1.0 | 3.0 | 0.00 | 0.00 | 0.00 | 58 | 1015.2 |
| 20260509053023 | 64 | 137 | 1.0 | 3.0 | 0.00 | 0.00 | 0.00 | 59 | 1015.2 |
| 20260509052523 | 64 | 137 | 1.0 | 3.0 | 0.00 | 0.00 | 0.00 | 59 | 1015.2 |
| 20260509052022 | 64 | 140 | 0.0 | 2.0 | 0.00 | 0.00 | 0.00 | 58 | 1015.2 |
| 20260509051523 | 64 | 140 | 1.0 | 2.0 | 0.00 | 0.00 | 0.00 | 59 | 1015.2 |
| 20260509051023 | 64 | 233 | 0.0 | 0.0 | 0.00 | 0.00 | 0.00 | 58 | 1015.2 |
| 20260509050522 | 65 | 234 | 0.0 | 1.0 | 0.00 | 0.00 | 0.00 | 58 | 1015.2 |
| 20260509050033 | 65 | 234 | 0.0 | 2.0 | 0.00 | 0.00 | 0.00 | 58 | 1015.2 |
| 20260509045522 | 65 | 235 | 0.0 | 2.0 | 0.00 | 0.00 | 0.00 | 58 | 1015.2 |
| 20260509045024 | 65 | 235 | 0.0 | 0.0 | 0.00 | 0.00 | 0.00 | 58 | 1015.2 |
| 20260509044522 | 65 | 236 | 0.0 | 0.0 | 0.00 | 0.00 | 0.00 | 58 | 1015.2 |
| 20260509044022 | 65 | 235 | 0.0 | 0.0 | 0.00 | 0.00 | 0.00 | 58 | 1015.1 |
| 20260509043524 | 65 | 236 | 0.0 | 2.0 | 0.00 | 0.00 | 0.00 | 57 | 1015.2 |
| 20260509043037 | 65 | 236 | 0.0 | 3.0 | 0.00 | 0.00 | 0.00 | 57 | 1015.1 |
| 20260509042522 | 65 | 235 | 1.0 | 3.0 | 0.00 | 0.00 | 0.00 | 57 | 1015.1 |
| 20260509042021 | 65 | 248 | 2.0 | 3.0 | 0.00 | 0.00 | 0.00 | 56 | 1015.0 |
| 20260509041521 | 65 | 250 | 1.0 | 3.0 | 0.00 | 0.00 | 0.00 | 57 | 1015.0 |
| 20260509041021 | 66 | 250 | 1.0 | 3.0 | 0.00 | 0.00 | 0.00 | 58 | 1014.9 |
| 20260509040520 | 66 | 250 | 0.0 | 2.0 | 0.00 | 0.00 | 0.00 | 58 | 1014.9 |
| 20260509040020 | 66 | 250 | 0.0 | 1.0 | 0.00 | 0.00 | 0.00 | 57 | 1014.9 |
| 20260509035520 | 66 | 250 | 0.0 | 1.0 | 0.00 | 0.00 | 0.00 | 56 | 1014.9 |
| 20260509035020 | 66 | 250 | 0.0 | 2.0 | 0.00 | 0.00 | 0.00 | 56 | 1014.9 |
| 20260509034519 | 66 | 250 | 1.0 | 2.0 | 0.00 | 0.00 | 0.00 | 55 | 1014.8 |
| 20260509034019 | 67 | 251 | 0.0 | 2.0 | 0.00 | 0.00 | 0.00 | 54 | 1014.9 |
| 20260509033520 | 67 | 251 | 0.0 | 2.0 | 0.00 | 0.00 | 0.00 | 53 | 1014.8 |
| 20260509033022 | 67 | 250 | 0.0 | 2.0 | 0.00 | 0.00 | 0.00 | 51 | 1014.8 |
| 20260509032519 | 67 | 250 | 0.0 | 2.0 | 0.00 | 0.00 | 0.00 | 50 | 1014.9 |
| 20260509032119 | 67 | 250 | 1.0 | 2.0 | 0.00 | 0.00 | 0.00 | 49 | 1014.8 |
| 20260509031520 | 68 | 250 | 1.0 | 2.0 | 0.00 | 0.00 | 0.00 | 48 | 1014.8 |
| 20260509031019 | 68 | 250 | 1.0 | 2.0 | 0.00 | 0.00 | 0.00 | 48 | 1014.8 |
| 20260509030521 | 68 | 250 | 1.0 | 3.0 | 0.00 | 0.00 | 0.00 | 47 | 1014.8 |
| 20260509030019 | 68 | 250 | 2.0 | 4.0 | 0.00 | 0.00 | 0.00 | 47 | 1014.8 |
| 20260509025517 | 69 | 260 | 2.0 | 4.0 | 0.00 | 0.00 | 0.00 | 47 | 1014.8 |
| 20260509025017 | 69 | 259 | 2.0 | 4.0 | 0.00 | 0.00 | 0.00 | 47 | 1014.8 |
| 20260509024517 | 70 | 259 | 2.0 | 6.0 | 0.00 | 0.00 | 0.00 | 48 | 1014.8 |
| 20260509024017 | 70 | 266 | 2.0 | 6.0 | 0.00 | 0.00 | 0.00 | 46 | 1014.7 |
| 20260509023516 | 70 | 251 | 2.0 | 4.0 | 0.00 | 0.00 | 0.00 | 48 | 1014.7 |
| 20260509023022 | 71 | 253 | 2.0 | 5.0 | 0.00 | 0.00 | 0.00 | 47 | 1014.6 |
| 20260509022518 | 71 | 286 | 2.0 | 5.0 | 0.00 | 0.00 | 0.00 | 48 | 1014.7 |
| 20260509022016 | 71 | 284 | 3.0 | 5.0 | 0.00 | 0.00 | 0.00 | 47 | 1014.6 |
| 20260509021520 | 71 | 285 | 2.0 | 5.0 | 0.00 | 0.00 | 0.00 | 47 | 1014.7 |
| 20260509021019 | 72 | 279 | 2.0 | 6.0 | 0.00 | 0.00 | 0.00 | 48 | 1014.7 |
| 20260509020517 | 72 | 283 | 3.0 | 6.0 | 0.00 | 0.00 | 0.00 | 48 | 1014.7 |
| 20260509020013 | 72 | 265 | 1.0 | 5.0 | 0.00 | 0.00 | 0.00 | 51 | 1014.7 |
| 20260509015517 | 72 | 286 | 2.0 | 10.0 | 0.00 | 0.00 | 0.00 | 50 | 1014.6 |
| 20260509015012 | 73 | 284 | 4.0 | 10.0 | 0.00 | 0.00 | 0.00 | 48 | 1014.7 |
| 20260509014513 | 73 | 290 | 2.0 | 9.0 | 0.00 | 0.00 | 0.00 | 50 | 1014.7 |
| 20260509014014 | 73 | 290 | 3.0 | 9.0 | 0.00 | 0.00 | 0.00 | 50 | 1014.7 |
| 20260509013512 | 73 | 290 | 2.0 | 9.0 | 0.00 | 0.00 | 0.00 | 49 | 1014.7 |
| 20260509013032 | 73 | 283 | 2.0 | 8.0 | 0.00 | 0.00 | 0.00 | 49 | 1014.9 |
| 20260509012511 | 73 | 286 | 2.0 | 10.0 | 0.00 | 0.00 | 0.00 | 50 | 1014.9 |
| 20260509012011 | 74 | 284 | 4.0 | 10.0 | 0.00 | 0.00 | 0.00 | 50 | 1014.9 |
| 20260509011511 | 74 | 285 | 2.0 | 7.0 | 0.00 | 0.00 | 0.00 | 50 | 1014.9 |
| 20260509011010 | 74 | 255 | 2.0 | 10.0 | 0.00 | 0.00 | 0.00 | 50 | 1014.8 |
| 20260509010513 | 74 | 263 | 3.0 | 11.0 | 0.00 | 0.00 | 0.00 | 48 | 1014.8 |
| 20260509010012 | 74 | 260 | 3.0 | 11.0 | 0.00 | 0.00 | 0.00 | 49 | 1014.8 |
| 20260509005509 | 74 | 278 | 4.0 | 10.0 | 0.00 | 0.00 | 0.00 | 48 | 1015.0 |
| 20260509005008 | 75 | 284 | 3.0 | 8.0 | 0.00 | 0.00 | 0.00 | 48 | 1015.0 |